Regional Weather Roundup
Issued by NWS

Home | Current Version | Previous Version | Text Only | Print | Product List | Glossary On
Versions: 1 2 3 4 5 6 7 8 9 10 11 12 13 14 15 16 17 18 19 20 21 22 23 24 25 26 27 28 29 30 31 32 33 34 35 36 37 38 39 40 41 42 43 44 45 46 47 48 49 50
000
ASUS45 KABQ 222210
RWRNM
NEW MEXICO REGIONAL WEATHER ROUNDUP
NATIONAL WEATHER SERVICE ALBUQUERQUE NM
300 PM MST WED NOV 22 2017

NOTE: "FAIR" MEANS FEW OR NO CLOUDS BELOW 12,000 FEET AGL WITH NO
       SIGNIFICANT WEATHER OR OBSTRUCTIONS TO VISION.

      THIS PRODUCT IS RELEASED AS TWO VERSIONS.  ONE VERSION NEAR
      THE TOP OF THE HOUR CONTAINING PRELIMINARY DATA FROM ALBUQUERQUE
      AND OTHER STATIONS.  A FINAL VERSION WITH ADDITIONAL DATA IS
      ISSUED ABOUT 10 MINUTES AFTER THE HOUR.

NMZ501-503-504-510>518-222300-
NORTHWEST PLATEAU/NORTHCENTRAL MOUNTAINS

CITY           SKY/WX    TMP DP  RH WIND       PRES   REMARKS
FARMINGTON     FAIR      61  29  29 SE6       30.32F
LOS ALAMOS     FAIR      57  23  26 CALM      30.37S
SANTA FE       FAIR      62  28  27 W14       30.31F
TAOS           FAIR      60  26  27 N18       30.38S
ANGEL FIRE     FAIR      56  26  31 SW9       30.39S

$$
NMZ402-403-502-505>509-222300-
WESTCENTRAL MOUNTAINS/SOUTHWEST MOUNTAINS

CITY           SKY/WX    TMP DP  RH WIND       PRES   REMARKS
GALLUP         FAIR      67  23  19 NE3       30.37F
GRANTS         FAIR      67  28  23 N13G21    30.37S
SILVER CITY    FAIR      64  21  19 CALM      30.32F

$$
NMZ407-409-411-412-222300-
SOUTHERN DESERTS

CITY           SKY/WX    TMP DP  RH WIND       PRES   REMARKS
DEMING         FAIR      67  22  18 SW5       30.29F
LAS CRUCES     FAIR      65  21  18 SW3       30.31S
ALAMOGORDO     FAIR      66  23  19 NW7       30.29F
T OR C         FAIR      65  23  20 S6        30.28F

$$
NMZ519>523-222300-
CENTRAL VALLEYS/CENTRAL HIGHLANDS

CITY           SKY/WX    TMP DP  RH WIND       PRES   REMARKS
ALBUQUERQUE    PTSUNNY   61  27  27 CALM      30.32F
DOUBLE EAGLE   MOSUNNY   63  28  27 N7        30.33F
MORIARTY ARPT  FAIR      65  24  21 NW6       30.33S
CLINES CORNERS FAIR      59  24  26 NW13      30.35F
BELEN          FAIR      60  26  26 CALM      30.32F
SOCORRO        FAIR      62  24  23 CALM      30.30F

$$
NMZ524>526-539-540-222300-
SOUTHCENTRAL MOUNTAINS

CITY           SKY/WX    TMP DP  RH WIND       PRES   REMARKS
RUIDOSO        FAIR      57  21  24 NW10G16   30.36F

$$
NMZ527>531-222300-
NORTHEAST HIGHLANDS/NORTHEAST PLAINS

CITY           SKY/WX    TMP DP  RH WIND       PRES   REMARKS
LAS VEGAS      FAIR      62  20  19 S8        30.32S
RATON          FAIR      61  17  18 VRB5      30.29R
CLAYTON        FAIR      65  26  23 E9        30.24R

$$
NMZ532>537-222300-
EASTCENTRAL PLAINS

CITY           SKY/WX    TMP DP  RH WIND       PRES   REMARKS
SANTA ROSA     FAIR      65  26  23 CALM      30.25S
TUCUMCARI      FAIR      64  28  25 W8        30.21S
CANNON AFB     FAIR      60  27  29 W10       30.26F
CLOVIS AIRPORT FAIR      61  28  28 W10       30.25F

$$
NMZ028-029-538-222300-
SOUTHEAST PLAINS

CITY           SKY/WX    TMP DP  RH WIND       PRES   REMARKS
ROSWELL        FAIR      63  28  26 S12       30.24F
ARTESIA        FAIR      63  28  27 SE15      30.25F
CARLSBAD       FAIR      63  30  28 SE16      30.24F
HOBBS          SUNNY     59  27  29 S12G17    30.27F


$$



USA.gov is the U.S. government's official web portal to all federal, state and local government web resources and services.